Regional Weather Roundup
Issued by NWS

Home | Current Version | Previous Version | Text Only | Print | Product List | Glossary On
Versions: 1 2 3 4 5 6 7 8 9 10 11 12 13 14 15 16 17 18 19 20 21 22 23 24 25 26 27 28 29 30 31 32 33 34 35 36 37 38 39 40 41 42 43 44 45 46 47 48 49 50
000
ASUS44 KLIX 211310
RWRLA
LOUISIANA WEATHER ROUNDUP
NATIONAL WEATHER SERVICE NEW ORLEANS LA
800 AM CDT MON APR 21 2014

NOTE: "FAIR" INDICATES FEW OR NO CLOUDS BELOW 12,000 FEET WITH NO
      SIGNIFICANT WEATHER AND/OR OBSTRUCTIONS TO VISIBILITY.
      SKY/WX - SKY CONDITION AND SIGNIFICANT WEATHER.
      TMP - AIR TEMPERATURE.    DP   - DEWPOINT TEMPERATURE.
      RH  - RELATIVE HUMIDITY.  PRES - PRESSURE.
      HX  - HEAT INDEX.         WCI  - WIND CHILL INDEX.

*  THESE STATIONS ARE NOT NWS OR FAA STATIONS AND ARE NOT UNDER
   NWS QUALITY CONTROL.

LAZ040-048-061>063-065-066-069-211400-
SOUTHEAST LOUISIANA

CITY           SKY/WX    TMP DP  RH WIND       PRES   REMARKS
N.O. AUDUBON     N/A     66  59  78 MISG        N/A
N.O. INTL ARPT MOSUNNY   64  59  83 SE3       30.15R
N.O. LAKEFRONT SUNNY     64  60  87 CALM      30.16R
N.O. DOWNTOWN* FAIR      64  55  72 SE5       30.16R
SLIDELL        SUNNY     60  57  89 CALM      30.15S
BATON ROUGE    MOSUNNY   65  61  87 SE3       30.14S FOG
BOOTHVILLE     CLOUDY    63  57  81 CALM      30.16R
BELLE CHASSE   PTSUNNY   64  57  77 CALM      30.15R
BOGALUSA*      FOG       58  56  92 CALM      30.17S VSB 1
GALLIANO*      SUNNY     66  60  81 E6        30.15S
NEW ROADS*     FOG       63  62  99 SE5       30.14S VSB 1/4
GONZALES*        N/A     62  62 100 CALM      30.14S
HAMMOND*       SUNNY     63  61  94 CALM      30.16F
HOUMA*         SUNNY     64  61  88 E3        30.15S
PORT FOURCHON* CLOUDY    64  59  82 NE8       30.16S

$$

LAZ041-044-053-054-211400-
SOUTHWEST LOUISIANA

CITY           SKY/WX    TMP DP  RH WIND       PRES   REMARKS
LAKE CHARLES   PTSUNNY   60  59  96 CALM      30.11S FOG
LAFAYETTE      FOG      N/A N/A N/A CALM      30.13S VSB 1/4
PATTERSON      SUNNY     63  63 100 CALM      30.16S
SALT POINT       N/A     66  63  90 SE3       30.13R
NEW IBERIA     PTSUNNY   65  64  97 SE6       30.14S
CHENAULT AIRPK FOG       57  57 100 SW5       30.12R VSB 1/2

$$

LAZ027-028-211400-
CENTRAL LOUISIANA

CITY           SKY/WX    TMP DP  RH WIND       PRES   REMARKS
FORT POLK      MOSUNNY   62  55  77 CALM      30.09S
ALEXANDRIA INT SUNNY     61  58  90 SE6       30.08S
ALEXANDRIA     SUNNY     61  57  87 SE3       30.10S

$$

LAZ001-002-211400-
NORTHWEST LOUISIANA

CITY           SKY/WX    TMP DP  RH WIND       PRES   REMARKS
SHREVEPORT     CLOUDY    63  55  75 S7        30.05S
BARKSDALE AFB  MOSUNNY   64  55  72 S7        30.06S
DTN SHREVEPORT CLOUDY    64  53  67 S10       30.05F

$$

LAZ014-016-211400-
NORTHEAST LOUISIANA

CITY           SKY/WX    TMP DP  RH WIND       PRES   REMARKS
MONROE         SUNNY     62  57  83 S6        30.08S
TALLULAH       MOSUNNY   63  58  83 S7        30.11R

$$




USA.gov is the U.S. government's official web portal to all federal, state and local government web resources and services.